GTI866 KRDU-ENTC

Flight info

Callsign GTI866
Flight time N/A
Altitude 39000
Route OXFRD5 CARML DCT LVZ DCT HNK DCT IMORI/N0489F410 Q910 YBC/M084F410 N925B VESMI DCT RAJAX DCT 69N030W 70N020W 71N010W 71N000E/N0485F410 DCT GILGU
Aircraft B748/H-SDE3FGHIM1M2RWXY/LB1

Departure

Time 2026-05-07 09:39
Airport Raleigh-Durham International Airport (KRDU)

Arrival

Time N/A
Airport Tromsø Airport (ENTC)
Time Latitude Longitude Altitude Speed Heading
2026-05-07 08:59 35.88178 -78.78826 401 ft 0 kts 169°
2026-05-07 09:26 35.88185 -78.78828 402 ft 4 kts 169°
2026-05-07 09:26 35.88211 -78.78834 400 ft 4 kts 176°
2026-05-07 09:26 35.88232 -78.78832 396 ft 3 kts 197°
2026-05-07 09:26 35.88254 -78.78818 398 ft 4 kts 234°
2026-05-07 09:27 35.88268 -78.78791 396 ft 3 kts 224°
2026-05-07 09:27 35.88273 -78.78784 399 ft 0 kts 221°
2026-05-07 09:33 35.88273 -78.78785 399 ft 0 kts 223°
2026-05-07 09:34 35.88271 -78.78797 397 ft 3 kts 260°
2026-05-07 09:34 35.88289 -78.78818 398 ft 5 kts 338°
2026-05-07 09:34 35.88334 -78.78799 400 ft 9 kts 28°
2026-05-07 09:34 35.88369 -78.78756 397 ft 9 kts 47°
2026-05-07 09:35 35.88425 -78.78682 401 ft 15 kts 46°
2026-05-07 09:35 35.88490 -78.78626 400 ft 6 kts
2026-05-07 09:35 35.88540 -78.78630 397 ft 7 kts
2026-05-07 09:35 35.88567 -78.78615 400 ft 5 kts 33°
2026-05-07 09:36 35.88612 -78.78569 400 ft 11 kts 46°
2026-05-07 09:36 35.88681 -78.78480 398 ft 18 kts 45°
2026-05-07 09:36 35.88783 -78.78353 399 ft 24 kts 45°
2026-05-07 09:36 35.88916 -78.78190 400 ft 30 kts 45°
2026-05-07 09:37 35.89064 -78.78009 397 ft 30 kts 45°
2026-05-07 09:37 35.89201 -78.77835 399 ft 26 kts 46°
2026-05-07 09:37 35.89274 -78.77748 401 ft 9 kts 32°
2026-05-07 09:37 35.89305 -78.77741 398 ft 2 kts 347°
2026-05-07 09:38 35.89315 -78.77752 401 ft 3 kts 317°
2026-05-07 09:38 35.89347 -78.77791 400 ft 8 kts 308°
2026-05-07 09:38 35.89352 -78.77832 400 ft 7 kts 254°
2026-05-07 09:38 35.89330 -78.77867 399 ft 8 kts 225°
2026-05-07 09:39 35.89134 -78.78106 398 ft 83 kts 224°
2026-05-07 09:39 35.88550 -78.78823 399 ft 152 kts 224°
2026-05-07 09:39 35.87717 -78.79853 775 ft 178 kts 224°
2026-05-07 09:39 35.86773 -78.81033 1175 ft 208 kts 225°
2026-05-07 09:40 35.85671 -78.82354 1562 ft 237 kts 224°
2026-05-07 09:40 35.84472 -78.83754 2634 ft 237 kts 225°
2026-05-07 09:40 35.83288 -78.85098 4030 ft 231 kts 224°
2026-05-07 09:40 35.82096 -78.86417 5397 ft 230 kts 224°
2026-05-07 09:41 35.80874 -78.87741 6529 ft 235 kts 224°
2026-05-07 09:41 35.79627 -78.89075 7534 ft 241 kts 224°
2026-05-07 09:41 35.78354 -78.90426 8549 ft 246 kts 227°
2026-05-07 09:41 35.77432 -78.92172 9554 ft 246 kts 249°
2026-05-07 09:42 35.77023 -78.94262 10439 ft 256 kts 264°
2026-05-07 09:42 35.77149 -78.96512 11070 ft 276 kts 280°
2026-05-07 09:42 35.77924 -78.98773 11634 ft 302 kts 298°
2026-05-07 09:42 35.79437 -79.00726 12154 ft 333 kts 318°
2026-05-07 09:43 35.81617 -79.02021 12672 ft 366 kts 337°
2026-05-07 09:43 35.84253 -79.02453 13184 ft 399 kts 354°
2026-05-07 09:43 35.87092 -79.01931 13802 ft 428 kts 11°
2026-05-07 09:43 35.89877 -79.00459 14561 ft 448 kts 25°
2026-05-07 09:44 35.92433 -78.98167 15427 ft 462 kts 36°
2026-05-07 09:44 35.94857 -78.95471 16272 ft 470 kts 38°
2026-05-07 09:44 35.97283 -78.92738 17094 ft 475 kts 36°
2026-05-07 09:44 35.99855 -78.90162 17909 ft 476 kts 31°
2026-05-07 09:45 36.02658 -78.87997 18634 ft 478 kts 24°
2026-05-07 09:45 36.05602 -78.86057 19316 ft 481 kts 21°
2026-05-07 09:45 36.08589 -78.84108 20024 ft 488 kts 24°
2026-05-07 09:45 36.11503 -78.81904 20726 ft 496 kts 27°
2026-05-07 09:46 36.14415 -78.79558 21398 ft 501 kts 27°
2026-05-07 09:46 36.17391 -78.77317 22053 ft 504 kts 24°
2026-05-07 09:46 36.20440 -78.75136 22703 ft 509 kts 24°
2026-05-07 09:46 36.23501 -78.72876 23287 ft 516 kts 26°
2026-05-07 09:47 36.26583 -78.70510 23738 ft 524 kts 26°
2026-05-07 09:47 36.29704 -78.68139 24213 ft 529 kts 26°
2026-05-07 09:47 36.32874 -78.65786 24752 ft 531 kts 26°
2026-05-07 09:47 36.36042 -78.63426 25268 ft 535 kts 26°
2026-05-07 09:48 36.39231 -78.61013 25757 ft 539 kts 26°
2026-05-07 09:48 36.42545 -78.58887 26247 ft 534 kts 16°
2026-05-07 09:48 36.46057 -78.57445 26728 ft 532 kts
2026-05-07 09:48 36.49637 -78.56162 27138 ft 537 kts
2026-05-07 09:49 36.53234 -78.54896 27559 ft 542 kts
2026-05-07 09:49 36.56878 -78.53593 27999 ft 547 kts
2026-05-07 09:49 36.60529 -78.52266 28584 ft 548 kts
2026-05-07 09:49 36.64192 -78.50940 29330 ft 546 kts
2026-05-07 09:50 36.67845 -78.49633 30155 ft 545 kts
2026-05-07 09:50 36.71486 -78.48319 30743 ft 549 kts